{"data":{"norad_id":55802,"epoch":"2026-05-25T04:15:04.984128Z","epoch_age_seconds":56246,"freshness":"FRESH","line1":"1 55802U 23029G   26145.17714102  .00000233  00000+0  59327-3 0  9993","line2":"2 55802  87.8933 294.3429 0002235  86.5589 273.5796 13.14501569156372","mean_motion":13.14501569,"eccentricity":0.0002235,"inclination_deg":87.8933,"raan_deg":294.3429,"arg_perigee_deg":86.5589,"mean_anomaly_deg":273.5796,"bstar":0.00059327,"rev_number":15637,"period_min":109.54722565265,"perigee_km":1204.1000806017,"apogee_km":1207.4900982457,"semimajor_km":7583.9320894237,"source":"CELESTRAK","updated_at":"2026-05-25T13:38:22.689394Z"}}